Hourly Weather Bahawalpur

Today, 10 August, Monday

Time Temperature Precipitation Wind Pressure Humidity
00:00 +39°C° 0 mm 3 mps 737 mmHg 42%
01:00 +38°C° 0 mm 3 mps 737 mmHg 44%
02:00 +38°C° 0 mm 3 mps 737 mmHg 45%
03:00 +38°C° 0 mm 3 mps 737 mmHg 46%
04:00 +37°C° 0 mm 2 mps 737 mmHg 47%
05:00 +37°C° 0 mm 2 mps 737 mmHg 45%
06:00 +38°C° 0 mm 2 mps 737 mmHg 43%
07:00 +39°C° 0 mm 3 mps 738 mmHg 41%
08:00 +40°C° 0 mm 3 mps 738 mmHg 39%
09:00 +42°C° 0 mm 3 mps 738 mmHg 37%
10:00 +43°C° 0 mm 3 mps 738 mmHg 35%
11:00 +44°C° 0 mm 4 mps 738 mmHg 34%
12:00 +44°C° 0 mm 3 mps 738 mmHg 35%
13:00 +44°C° 0 mm 3 mps 737 mmHg 35%
14:00 +44°C° 0 mm 3 mps 737 mmHg 35%
15:00 +43°C° 0.1 mm 4 mps 736 mmHg 36%
16:00 +43°C° 0.1 mm 4 mps 736 mmHg 37%
17:00 +42°C° 0.1 mm 4 mps 736 mmHg 39%
18:00 +42°C° 0.1 mm 4 mps 736 mmHg 39%
19:00 +42°C° 0.1 mm 3 mps 736 mmHg 40%
20:00 +40°C° 0.1 mm 3 mps 737 mmHg 41%
21:00 +40°C° 0 mm 3 mps 737 mmHg 41%
22:00 +40°C° 0 mm 3 mps 737 mmHg 41%
23:00 +40°C° 0 mm 3 mps 737 mmHg 41%

Tomorrow, 11 August, Tuesday

Time Temperature Precipitation Wind Pressure Humidity
00:00 +39°C° 0 mm 3 mps 737 mmHg 42%
01:00 +40°C° 0 mm 4 mps 737 mmHg 43%
02:00 +40°C° 0 mm 4 mps 737 mmHg 44%
03:00 +38°C° 0 mm 4 mps 737 mmHg 45%
04:00 +38°C° 0 mm 3 mps 737 mmHg 46%
05:00 +38°C° 0 mm 3 mps 737 mmHg 48%
06:00 +38°C° 0 mm 4 mps 737 mmHg 49%
07:00 +40°C° 0 mm 4 mps 737 mmHg 50%
08:00 +40°C° 0 mm 5 mps 738 mmHg 51%
09:00 +41°C° 0 mm 5 mps 738 mmHg 46%
10:00 +43°C° 0 mm 5 mps 738 mmHg 41%
11:00 +45°C° 0 mm 5 mps 737 mmHg 36%
12:00 +46°C° 0 mm 5 mps 737 mmHg 34%
13:00 +46°C° 0 mm 6 mps 737 mmHg 32%
14:00 +47°C° 0 mm 6 mps 736 mmHg 31%
15:00 +46°C° 0 mm 7 mps 736 mmHg 33%
16:00 +45°C° 0 mm 8 mps 736 mmHg 35%
17:00 +44°C° 0 mm 8 mps 735 mmHg 37%
18:00 +43°C° 0 mm 8 mps 736 mmHg 38%
19:00 +43°C° 0 mm 7 mps 736 mmHg 39%
20:00 +41°C° 0 mm 6 mps 736 mmHg 40%
21:00 +40°C° 0 mm 7 mps 736 mmHg 41%
22:00 +40°C° 0 mm 7 mps 736 mmHg 43%
23:00 +39°C° 0 mm 7 mps 737 mmHg 45%

Day after tomorrow, 12 August, Wednesday

Time Temperature Precipitation Wind Pressure Humidity
00:00 +39°C° 0 mm 7 mps 736 mmHg 46%
01:00 +39°C° 0 mm 6 mps 736 mmHg 47%
02:00 +39°C° 0 mm 5 mps 736 mmHg 47%
03:00 +39°C° 0 mm 5 mps 736 mmHg 51%
04:00 +38°C° 0 mm 6 mps 736 mmHg 55%
05:00 +38°C° 0 mm 6 mps 736 mmHg 59%
06:00 +38°C° 0 mm 6 mps 736 mmHg 59%
07:00 +38°C° 0 mm 6 mps 736 mmHg 59%
08:00 +38°C° 0 mm 7 mps 737 mmHg 58%
09:00 +40°C° 0 mm 7 mps 737 mmHg 52%
10:00 +41°C° 0 mm 6 mps 737 mmHg 47%
11:00 +44°C° 0 mm 6 mps 737 mmHg 41%
12:00 +45°C° 0 mm 6 mps 736 mmHg 37%
13:00 +46°C° 0 mm 6 mps 736 mmHg 34%
14:00 +47°C° 0 mm 6 mps 736 mmHg 31%
15:00 +47°C° 0 mm 5 mps 735 mmHg 31%
16:00 +47°C° 0 mm 5 mps 735 mmHg 30%
17:00 +47°C° 0 mm 5 mps 734 mmHg 30%
18:00 +46°C° 0 mm 5 mps 735 mmHg 32%
19:00 +45°C° 0 mm 6 mps 735 mmHg 34%
20:00 +44°C° 0 mm 6 mps 736 mmHg 37%
21:00 +42°C° 0 mm 6 mps 736 mmHg 39%
22:00 +41°C° 0 mm 7 mps 736 mmHg 41%
23:00 +41°C° 0 mm 8 mps 736 mmHg 43%

13 August, Thursday

Time Temperature Precipitation Wind Pressure Humidity
00:00 +40°C° 0 mm 7 mps 736 mmHg 46%
01:00 +39°C° 0 mm 7 mps 736 mmHg 49%
02:00 +38°C° 0 mm 7 mps 736 mmHg 52%
03:00 +36°C° 0 mm 7 mps 736 mmHg 55%
04:00 +36°C° 0 mm 6 mps 735 mmHg 57%
05:00 +35°C° 0 mm 6 mps 735 mmHg 59%
06:00 +35°C° 0 mm 7 mps 735 mmHg 58%
07:00 +36°C° 0 mm 7 mps 736 mmHg 57%
08:00 +36°C° 0 mm 7 mps 736 mmHg 55%
09:00 +39°C° 0 mm 7 mps 736 mmHg 50%
10:00 +41°C° 0 mm 6 mps 736 mmHg 44%
11:00 +44°C° 0 mm 6 mps 736 mmHg 38%
12:00 +45°C° 0 mm 6 mps 736 mmHg 35%
13:00 +46°C° 0 mm 5 mps 735 mmHg 32%
14:00 +47°C° 0 mm 5 mps 735 mmHg 29%
15:00 +47°C° 0 mm 5 mps 734 mmHg 29%
16:00 +47°C° 0 mm 5 mps 734 mmHg 28%
17:00 +47°C° 0 mm 6 mps 733 mmHg 28%
18:00 +46°C° 0 mm 5 mps 734 mmHg 30%
19:00 +45°C° 0 mm 5 mps 734 mmHg 32%
20:00 +43°C° 0 mm 4 mps 734 mmHg 34%
21:00 +42°C° 0 mm 5 mps 735 mmHg 35%
22:00 +42°C° 0 mm 5 mps 735 mmHg 37%
23:00 +41°C° 0 mm 5 mps 735 mmHg 38%

14 August, Friday

Time Temperature Precipitation Wind Pressure Humidity
00:00 +41°C° 0 mm 5 mps 735 mmHg 41%
01:00 +40°C° 0 mm 5 mps 735 mmHg 43%
02:00 +40°C° 0 mm 5 mps 735 mmHg 45%
03:00 +39°C° 0 mm 5 mps 735 mmHg 49%
04:00 +38°C° 0 mm 6 mps 735 mmHg 52%
05:00 +36°C° 0 mm 6 mps 735 mmHg 55%
06:00 +36°C° 0 mm 6 mps 735 mmHg 55%
07:00 +36°C° 0 mm 5 mps 736 mmHg 54%
08:00 +37°C° 0 mm 5 mps 736 mmHg 54%
09:00 +39°C° 0 mm 5 mps 736 mmHg 48%
10:00 +41°C° 0 mm 5 mps 736 mmHg 42%
11:00 +43°C° 0 mm 5 mps 736 mmHg 37%
12:00 +45°C° 0 mm 5 mps 736 mmHg 34%
13:00 +46°C° 0 mm 5 mps 735 mmHg 32%
14:00 +47°C° 0 mm 5 mps 735 mmHg 29%
15:00 +47°C° 0 mm 5 mps 734 mmHg 29%
16:00 +47°C° 0 mm 5 mps 734 mmHg 29%
17:00 +47°C° 0 mm 5 mps 733 mmHg 29%
18:00 +45°C° 0 mm 4 mps 733 mmHg 31%
19:00 +44°C° 0 mm 4 mps 734 mmHg 32%
20:00 +43°C° 0 mm 4 mps 734 mmHg 34%
21:00 +42°C° 0 mm 4 mps 734 mmHg 35%
22:00 +42°C° 0 mm 4 mps 735 mmHg 35%
23:00 +42°C° 0 mm 4 mps 735 mmHg 36%

15 August, Saturday

Time Temperature Precipitation Wind Pressure Humidity
00:00 +41°C° 0 mm 4 mps 735 mmHg 37%
01:00 +40°C° 0 mm 3 mps 735 mmHg 39%
02:00 +40°C° 0 mm 3 mps 735 mmHg 40%
03:00 +40°C° 0 mm 4 mps 735 mmHg 44%
04:00 +39°C° 0 mm 5 mps 734 mmHg 48%
05:00 +37°C° 0 mm 5 mps 734 mmHg 52%
06:00 +39°C° 0 mm 5 mps 735 mmHg 52%
07:00 +39°C° 0 mm 5 mps 735 mmHg 51%
08:00 +39°C° 0 mm 5 mps 735 mmHg 51%
09:00 +41°C° 0 mm 5 mps 735 mmHg 46%
10:00 +43°C° 0 mm 5 mps 735 mmHg 40%
11:00 +45°C° 0 mm 5 mps 735 mmHg 35%
12:00 +45°C° 0 mm 4 mps 735 mmHg 33%
13:00 +47°C° 0 mm 4 mps 734 mmHg 30%
14:00 +48°C° 0 mm 4 mps 734 mmHg 28%
15:00 +47°C° 0 mm 4 mps 734 mmHg 31%
16:00 +45°C° 0 mm 5 mps 733 mmHg 34%
17:00 +43°C° 0 mm 5 mps 733 mmHg 37%
18:00 +43°C° 0 mm 4 mps 733 mmHg 37%
19:00 +42°C° 0 mm 4 mps 734 mmHg 37%
20:00 +42°C° 0 mm 3 mps 734 mmHg 37%
21:00 +42°C° 0 mm 3 mps 734 mmHg 36%
22:00 +42°C° 0 mm 3 mps 734 mmHg 36%
23:00 +42°C° 0 mm 3 mps 735 mmHg 35%
Show more